Location: Fort Worth, Tx
(32.7431°N, 97.3695°W)
Time: 04:50:23
(UTC-05:00)

BlueWalker 3 - Visible Passes

Search period start: 23 February 2024 00:00
Search period end: 04 March 2024 00:00
Orbit: 486 x 500 km, 53.2° (Epoch: 22 February)

Date Brightness Start Highest point End Pass type
(mag) Time Alt. Az. Time Alt. Az. Time Alt. Az.
01 Mar 4.4 20:59:15 10° N 20:59:43 11° NNE 20:59:43 11° NNE visible
02 Mar 4.1 20:35:24 10° N 20:36:52 12° NNE 20:37:00 12° NNE visible
03 Mar 4.1 20:11:33 10° N 20:12:52 11° NNE 20:14:10 10° NE visible
03 Mar 4.5 21:47:51 10° NW 21:48:50 17° NW 21:48:50 17° NW visible
